When you browse on this site, cookies collect data to enhance your experience and personalize the content and advertising you see.
Visit our Privacy Policy to learn more. By continuing to use the site, you agree to this use of cookies and data.
  • In Czech Republic
  • List of Countries
  • For 7 days
  • Water Temperature
  • Satellite Maps
  • Weather Map
  • Weather Widgets
  • user-avatar
    Login

    Hourly Weather Mochalische

    Today, 19 February, Tuesday

    Time Temperature Precipitation Wind Pressure Humidity
    00:00 -17°C° 0 mm 6 mps 748 mmHg 80%
    01:00 -18°C° 0 mm 6 mps 749 mmHg 80%
    02:00 -18°C° 0 mm 6 mps 750 mmHg 81%
    03:00 -19°C° 0 mm 5 mps 750 mmHg 81%
    04:00 -19°C° 0 mm 5 mps 750 mmHg 82%
    05:00 -19°C° 0 mm 5 mps 751 mmHg 83%
    06:00 -19°C° 0 mm 4 mps 751 mmHg 84%
    07:00 -19°C° 0 mm 4 mps 752 mmHg 84%
    08:00 -18°C° 0 mm 4 mps 753 mmHg 84%
    09:00 -17°C° 0 mm 3 mps 753 mmHg 84%
    10:00 -16°C° 0 mm 3 mps 753 mmHg 82%
    11:00 -13°C° 0 mm 2 mps 753 mmHg 79%
    12:00 -12°C° 0 mm 2 mps 753 mmHg 77%
    13:00 -12°C° 0 mm 2 mps 752 mmHg 77%
    14:00 -10°C° 0 mm 2 mps 751 mmHg 77%
    15:00 -10°C° 0 mm 2 mps 751 mmHg 77%
    16:00 -10°C° 0 mm 2 mps 751 mmHg 79%
    17:00 -12°C° 0 mm 3 mps 750 mmHg 81%
    18:00 -12°C° 0 mm 3 mps 750 mmHg 84%
    19:00 -12°C° 0.1 mm 3 mps 749 mmHg 87%
    20:00 -12°C° 0.1 mm 3 mps 749 mmHg 90%
    21:00 -10°C° 0.1 mm 2 mps 749 mmHg 93%
    22:00 -9°C° 0 mm 2 mps 748 mmHg 94%
    23:00 -8°C° 0 mm 2 mps 748 mmHg 95%

    Tomorrow, 20 February, Wednesday

    Time Temperature Precipitation Wind Pressure Humidity
    00:00 -8°C° 0 mm 2 mps 748 mmHg 95%
    01:00 -7°C° 0 mm 2 mps 748 mmHg 95%
    02:00 -7°C° 0 mm 2 mps 748 mmHg 96%
    03:00 -6°C° 0 mm 2 mps 748 mmHg 96%
    04:00 -6°C° 0 mm 2 mps 747 mmHg 96%
    05:00 -8°C° 0 mm 3 mps 747 mmHg 96%
    06:00 -8°C° 0 mm 3 mps 747 mmHg 95%
    07:00 -8°C° 0 mm 3 mps 746 mmHg 95%
    08:00 -8°C° 0 mm 3 mps 746 mmHg 95%
    09:00 -9°C° 0 mm 4 mps 746 mmHg 94%
    10:00 -8°C° 0 mm 4 mps 745 mmHg 93%
    11:00 -8°C° 0 mm 4 mps 745 mmHg 91%
    12:00 -8°C° 0 mm 4 mps 745 mmHg 90%
    13:00 -7°C° 0.1 mm 4 mps 744 mmHg 90%
    14:00 -7°C° 0.1 mm 4 mps 744 mmHg 90%
    15:00 -5°C° 0.1 mm 4 mps 744 mmHg 90%
    16:00 -5°C° 0.1 mm 4 mps 744 mmHg 90%
    17:00 -5°C° 0.1 mm 4 mps 743 mmHg 89%
    18:00 -4°C° 0.1 mm 4 mps 743 mmHg 89%
    19:00 -4°C° 0.1 mm 4 mps 743 mmHg 90%
    20:00 -4°C° 0.1 mm 4 mps 742 mmHg 90%
    21:00 -4°C° 0.1 mm 4 mps 742 mmHg 91%
    22:00 -4°C° 0.3 mm 4 mps 742 mmHg 92%
    23:00 -4°C° 0.3 mm 4 mps 742 mmHg 92%

    Day after tomorrow, 21 February, Thursday

    Time Temperature Precipitation Wind Pressure Humidity
    00:00 -3°C° 0.3 mm 4 mps 741 mmHg 93%
    01:00 -3°C° 0.5 mm 4 mps 741 mmHg 93%
    02:00 -3°C° 0.5 mm 4 mps 741 mmHg 94%
    03:00 -3°C° 0.5 mm 4 mps 741 mmHg 94%
    04:00 -3°C° 0.3 mm 4 mps 741 mmHg 93%
    05:00 -3°C° 0.3 mm 4 mps 741 mmHg 93%
    06:00 -3°C° 0.3 mm 4 mps 741 mmHg 92%
    07:00 -2°C° 0.1 mm 4 mps 741 mmHg 92%
    08:00 -2°C° 0.1 mm 4 mps 741 mmHg 92%
    09:00 -2°C° 0.1 mm 4 mps 741 mmHg 91%
    10:00 -1°C° 0.1 mm 4 mps 741 mmHg 93%
    11:00 -1°C° 0.1 mm 4 mps 742 mmHg 95%
    12:00 0°C° 0.1 mm 3 mps 742 mmHg 97%
    13:00 0°C° 0.1 mm 3 mps 742 mmHg 96%
    14:00 0°C° 0.1 mm 3 mps 742 mmHg 96%
    15:00 0°C° 0.1 mm 3 mps 742 mmHg 95%
    16:00 0°C° 0.2 mm 3 mps 742 mmHg 95%
    17:00 -1°C° 0.2 mm 3 mps 742 mmHg 94%
    18:00 -1°C° 0.2 mm 3 mps 742 mmHg 94%
    19:00 -1°C° 0.1 mm 3 mps 742 mmHg 94%
    20:00 -1°C° 0.1 mm 3 mps 742 mmHg 93%
    21:00 -3°C° 0.1 mm 4 mps 742 mmHg 93%
    22:00 -2°C° 0 mm 3 mps 742 mmHg 94%
    23:00 -4°C° 0 mm 3 mps 741 mmHg 95%

    22 February, Friday

    Time Temperature Precipitation Wind Pressure Humidity
    00:00 -5°C° 0 mm 3 mps 741 mmHg 96%
    01:00 -5°C° 0.1 mm 3 mps 741 mmHg 96%
    02:00 -4°C° 0.1 mm 3 mps 741 mmHg 96%
    03:00 -3°C° 0.1 mm 2 mps 741 mmHg 96%
    04:00 -3°C° 0.2 mm 2 mps 741 mmHg 96%
    05:00 -3°C° 0.2 mm 2 mps 740 mmHg 96%
    06:00 -3°C° 0.2 mm 2 mps 740 mmHg 97%
    07:00 -3°C° 0.3 mm 2 mps 740 mmHg 96%
    08:00 -3°C° 0.3 mm 2 mps 740 mmHg 96%
    09:00 -2°C° 0.3 mm 2 mps 741 mmHg 95%
    10:00 -2°C° 0.4 mm 2 mps 741 mmHg 96%
    11:00 -1°C° 0.4 mm 2 mps 741 mmHg 97%
    12:00 -1°C° 0.4 mm 2 mps 741 mmHg 98%
    13:00 -1°C° 0.5 mm 2 mps 741 mmHg 98%
    14:00 -1°C° 0.5 mm 2 mps 742 mmHg 97%
    15:00 -1°C° 0.5 mm 2 mps 742 mmHg 97%
    16:00 -1°C° 0.1 mm 2 mps 742 mmHg 97%
    17:00 0°C° 0.1 mm 1 mps 743 mmHg 96%
    18:00 -1°C° 0.1 mm 1 mps 743 mmHg 96%
    19:00 -1°C° 0 mm 1 mps 744 mmHg 96%
    20:00 -2°C° 0 mm 1 mps 745 mmHg 96%
    21:00 -4°C° 0 mm 2 mps 745 mmHg 96%
    22:00 -4°C° 0 mm 2 mps 746 mmHg 96%
    23:00 -5°C° 0 mm 2 mps 746 mmHg 95%

    23 February, Saturday

    Time Temperature Precipitation Wind Pressure Humidity
    00:00 -5°C° 0 mm 2 mps 747 mmHg 95%
    01:00 -6°C° 0.1 mm 3 mps 748 mmHg 95%
    02:00 -6°C° 0.1 mm 3 mps 748 mmHg 94%
    03:00 -6°C° 0.1 mm 3 mps 749 mmHg 94%
    04:00 -7°C° 0.1 mm 4 mps 749 mmHg 94%
    05:00 -8°C° 0.1 mm 4 mps 750 mmHg 93%
    06:00 -8°C° 0.1 mm 4 mps 751 mmHg 93%
    07:00 -9°C° 0.2 mm 4 mps 751 mmHg 93%
    08:00 -9°C° 0.2 mm 4 mps 752 mmHg 93%
    09:00 -10°C° 0.2 mm 4 mps 753 mmHg 93%
    10:00 -8°C° 0.1 mm 3 mps 753 mmHg 93%
    11:00 -8°C° 0.1 mm 3 mps 754 mmHg 92%
    12:00 -8°C° 0.1 mm 3 mps 755 mmHg 92%
    13:00 -8°C° 0 mm 3 mps 755 mmHg 92%
    14:00 -8°C° 0 mm 3 mps 756 mmHg 91%
    15:00 -8°C° 0 mm 3 mps 756 mmHg 91%
    16:00 -8°C° 0 mm 3 mps 757 mmHg 92%
    17:00 -9°C° 0 mm 3 mps 757 mmHg 92%
    18:00 -10°C° 0 mm 3 mps 758 mmHg 93%
    19:00 -10°C° 0 mm 3 mps 758 mmHg 93%
    20:00 -12°C° 0 mm 3 mps 759 mmHg 94%
    21:00 -12°C° 0 mm 3 mps 759 mmHg 94%
    22:00 -12°C° 0 mm 2 mps 759 mmHg 94%
    23:00 -13°C° 0 mm 2 mps 760 mmHg 95%

    24 February, Sunday

    Time Temperature Precipitation Wind Pressure Humidity
    00:00 -13°C° 0 mm 2 mps 760 mmHg 95%
    01:00 -14°C° 0 mm 2 mps 761 mmHg 95%
    02:00 -15°C° 0 mm 2 mps 761 mmHg 95%
    03:00 -16°C° 0 mm 2 mps 761 mmHg 95%
    04:00 -17°C° 0 mm 2 mps 761 mmHg 95%
    05:00 -18°C° 0 mm 2 mps 762 mmHg 95%
    06:00 -20°C° 0 mm 2 mps 762 mmHg 95%
    07:00 -17°C° 0 mm 1 mps 762 mmHg 93%
    08:00 -16°C° 0 mm 1 mps 763 mmHg 90%
    09:00 -16°C° 0 mm 1 mps 763 mmHg 88%
    10:00 -14°C° 0 mm 1 mps 763 mmHg 85%
    11:00 -12°C° 0 mm 1 mps 763 mmHg 83%
    12:00 -12°C° 0 mm 2 mps 763 mmHg 80%
    13:00 -12°C° 0 mm 2 mps 763 mmHg 81%
    14:00 -10°C° 0 mm 2 mps 763 mmHg 83%
    15:00 -9°C° 0 mm 2 mps 763 mmHg 84%
    16:00 -10°C° 0 mm 2 mps 763 mmHg 87%
    17:00 -13°C° 0 mm 2 mps 763 mmHg 90%
    18:00 -14°C° 0 mm 2 mps 763 mmHg 93%
    19:00 -14°C° 0 mm 2 mps 763 mmHg 94%
    20:00 -13°C° 0 mm 2 mps 763 mmHg 95%
    21:00 -13°C° 0 mm 2 mps 763 mmHg 95%
    22:00 -13°C° 0 mm 2 mps 763 mmHg 96%
    23:00 -14°C° 0 mm 3 mps 762 mmHg 96%
    Show more